Time,TemperatureF,DewpointF,PressureIn,WindDirection,WindDirectionDegrees,WindSpeedMPH,WindSpeedGustMPH,Humidity,HourlyPrecipIn,Conditions,Clouds,dailyrainin,SoftwareType,DateUTC
2013-09-08 00:02:00,67.0,53.0,-100.00,NE,40,4.0,10.0,61,0.00,,,0.00,,2013-09-08 00:02:00,
2013-09-08 00:11:00,67.0,53.0,-100.00,NE,40,4.0,10.0,61,0.00,,,0.00,,2013-09-08 00:11:00,
2013-09-08 00:43:00,66.0,53.0,-100.00,WNW,290,5.0,10.0,64,0.00,,,0.00,,2013-09-08 00:43:00,
2013-09-08 00:52:00,66.0,53.0,-100.00,WNW,290,5.0,10.0,64,0.00,,,0.00,,2013-09-08 00:52:00,
2013-09-08 01:01:00,66.0,53.0,-100.00,WNW,290,5.0,10.0,64,0.00,,,0.00,,2013-09-08 01:01:00,
2013-09-08 01:11:00,66.0,53.0,-100.00,WNW,290,5.0,10.0,64,0.00,,,0.00,,2013-09-08 01:11:00,
2013-09-08 01:42:00,63.0,55.0,-100.00,East,96,2.0,7.0,76,0.00,,,0.00,,2013-09-08 01:42:00,
2013-09-08 01:52:00,63.0,55.0,-100.00,East,96,2.0,7.0,76,0.00,,,0.00,,2013-09-08 01:52:00,
2013-09-08 02:02:00,63.0,55.0,-100.00,East,96,2.0,7.0,76,0.00,,,0.00,,2013-09-08 02:02:00,
2013-09-08 02:11:00,63.0,55.0,-100.00,East,96,2.0,7.0,76,0.00,,,0.00,,2013-09-08 02:11:00,
2013-09-08 02:43:00,60.0,55.0,-100.00,SE,131,2.0,12.0,84,0.00,,,0.00,,2013-09-08 02:43:00,
2013-09-08 02:52:00,60.0,55.0,-100.00,SE,131,2.0,12.0,84,0.00,,,0.00,,2013-09-08 02:52:00,
2013-09-08 03:02:00,60.0,55.0,-100.00,SE,131,2.0,12.0,84,0.00,,,0.00,,2013-09-08 03:02:00,
2013-09-08 03:12:00,60.0,55.0,-100.00,SE,131,2.0,12.0,84,0.00,,,0.00,,2013-09-08 03:12:00,
2013-09-08 03:44:00,59.0,56.0,-100.00,East,91,2.0,4.0,89,0.00,,,0.00,,2013-09-08 03:44:00,
2013-09-08 03:54:00,59.0,56.0,-100.00,East,91,2.0,4.0,89,0.00,,,0.00,,2013-09-08 03:54:00,
2013-09-08 04:02:00,-999.0,-99.9,-100.00,East,91,2.0,4.0,-999,-99.99,,,-99.99,,2013-09-08 04:02:00,
2013-09-08 04:14:00,59.0,56.0,-100.00,East,91,2.0,4.0,89,0.00,,,0.00,,2013-09-08 04:14:00,
2013-09-08 04:43:00,58.0,56.0,-100.00,ENE,65,3.0,-999.0,93,0.00,,,0.00,,2013-09-08 04:43:00,
2013-09-08 04:54:00,58.0,56.0,-100.00,ENE,65,3.0,-999.0,93,0.00,,,0.00,,2013-09-08 04:54:00,
2013-09-08 05:03:00,58.0,56.0,-100.00,ENE,65,3.0,-999.0,93,0.00,,,0.00,,2013-09-08 05:03:00,
2013-09-08 05:12:00,58.0,56.0,-100.00,ENE,65,3.0,-999.0,93,0.00,,,0.00,,2013-09-08 05:12:00,
2013-09-08 05:43:00,57.0,56.0,-100.00,NNW,346,1.0,5.0,96,0.00,,,0.00,,2013-09-08 05:43:00,
2013-09-08 05:52:00,57.0,56.0,-100.00,NNW,346,1.0,5.0,96,0.00,,,0.00,,2013-09-08 05:52:00,
2013-09-08 06:02:00,57.0,56.0,-100.00,NNW,346,1.0,5.0,96,0.00,,,0.00,,2013-09-08 06:02:00,
2013-09-08 06:12:00,57.0,56.0,-100.00,NNW,346,1.0,5.0,96,0.00,,,0.00,,2013-09-08 06:12:00,
2013-09-08 06:42:00,56.0,55.0,-100.00,West,272,1.0,7.0,96,0.00,,,0.00,,2013-09-08 06:42:00,
2013-09-08 06:53:00,56.0,55.0,-100.00,West,272,1.0,7.0,96,0.00,,,0.00,,2013-09-08 06:53:00,
2013-09-08 07:01:00,56.0,55.0,-100.00,West,272,1.0,7.0,96,0.00,,,0.00,,2013-09-08 07:01:00,
2013-09-08 07:12:00,56.0,55.0,-100.00,West,272,1.0,7.0,96,0.00,,,0.00,,2013-09-08 07:12:00,
2013-09-08 07:42:00,56.0,55.0,-100.00,SE,146,0.0,3.0,96,0.00,,,0.00,,2013-09-08 07:42:00,
2013-09-08 07:52:00,56.0,55.0,-100.00,SE,146,0.0,3.0,96,0.00,,,0.00,,2013-09-08 07:52:00,
2013-09-08 08:02:00,56.0,55.0,-100.00,SE,146,0.0,3.0,96,0.00,,,0.00,,2013-09-08 08:02:00,
2013-09-08 08:11:00,56.0,55.0,-100.00,SE,146,0.0,3.0,96,0.00,,,0.00,,2013-09-08 08:11:00,
2013-09-08 08:42:00,55.0,54.0,-100.00,South,172,1.0,3.0,97,0.00,,,0.00,,2013-09-08 08:42:00,
2013-09-08 08:52:00,55.0,54.0,-100.00,South,172,1.0,3.0,97,0.00,,,0.00,,2013-09-08 08:52:00,
2013-09-08 09:02:00,55.0,54.0,-100.00,South,172,1.0,3.0,97,0.00,,,0.00,,2013-09-08 09:02:00,
2013-09-08 09:11:00,55.0,54.0,-100.00,South,172,1.0,3.0,97,0.00,,,0.00,,2013-09-08 09:11:00,
2013-09-08 09:43:00,55.0,54.0,-100.00,SE,127,3.0,5.0,97,0.00,,,0.00,,2013-09-08 09:43:00,
2013-09-08 09:54:00,55.0,54.0,-100.00,SE,127,3.0,5.0,97,0.00,,,0.00,,2013-09-08 09:54:00,
2013-09-08 10:03:00,55.0,54.0,-100.00,SE,127,3.0,5.0,97,0.00,,,0.00,,2013-09-08 10:03:00,
2013-09-08 10:12:00,55.0,54.0,-100.00,SE,127,3.0,5.0,97,0.00,,,0.00,,2013-09-08 10:12:00,
2013-09-08 10:42:00,55.0,54.0,-100.00,East,83,2.0,4.0,96,0.00,,,0.00,,2013-09-08 10:42:00,
2013-09-08 10:53:00,55.0,54.0,-100.00,East,83,2.0,4.0,96,0.00,,,0.00,,2013-09-08 10:53:00,
2013-09-08 11:02:00,55.0,54.0,-100.00,East,83,2.0,4.0,96,0.00,,,0.00,,2013-09-08 11:02:00,
2013-09-08 11:12:00,55.0,54.0,-100.00,East,83,2.0,4.0,96,0.00,,,0.00,,2013-09-08 11:12:00,
2013-09-08 11:42:00,57.0,56.0,-100.00,SE,140,3.0,4.0,96,0.00,,,0.00,,2013-09-08 11:42:00,
2013-09-08 11:52:00,57.0,56.0,-100.00,SE,140,3.0,4.0,96,0.00,,,0.00,,2013-09-08 11:52:00,
2013-09-08 12:02:00,57.0,56.0,-100.00,SE,140,3.0,4.0,96,0.00,,,0.00,,2013-09-08 12:02:00,
2013-09-08 12:12:00,57.0,56.0,-100.00,SE,140,3.0,4.0,96,0.00,,,0.00,,2013-09-08 12:12:00,
2013-09-08 12:42:00,57.0,55.0,-100.00,SW,236,2.0,4.0,93,0.00,,,0.00,,2013-09-08 12:42:00,
2013-09-08 12:52:00,57.0,55.0,-100.00,SW,236,2.0,4.0,93,0.00,,,0.00,,2013-09-08 12:52:00,
2013-09-08 13:01:00,57.0,55.0,-100.00,SW,236,2.0,4.0,93,0.00,,,0.00,,2013-09-08 13:01:00,
2013-09-08 13:11:00,57.0,55.0,-100.00,SW,236,2.0,4.0,93,0.00,,,0.00,,2013-09-08 13:11:00,
2013-09-08 13:42:00,58.0,55.0,-100.00,SE,134,2.0,4.0,91,0.00,,,0.00,,2013-09-08 13:42:00,
2013-09-08 13:52:00,58.0,55.0,-100.00,SE,134,2.0,4.0,91,0.00,,,0.00,,2013-09-08 13:52:00,
2013-09-08 14:02:00,58.0,55.0,-100.00,SE,134,2.0,4.0,91,0.00,,,0.00,,2013-09-08 14:02:00,
2013-09-08 14:11:00,58.0,55.0,-100.00,SE,134,2.0,4.0,91,0.00,,,0.00,,2013-09-08 14:11:00,
2013-09-08 14:42:00,58.0,55.0,-100.00,West,268,2.0,4.0,91,0.00,,,0.00,,2013-09-08 14:42:00,
2013-09-08 14:52:00,58.0,55.0,-100.00,West,268,2.0,4.0,91,0.00,,,0.00,,2013-09-08 14:52:00,
2013-09-08 15:02:00,58.0,55.0,-100.00,West,268,2.0,4.0,91,0.00,,,0.00,,2013-09-08 15:02:00,
2013-09-08 15:12:00,58.0,55.0,-100.00,West,268,2.0,4.0,91,0.00,,,0.00,,2013-09-08 15:12:00,
2013-09-08 15:45:00,61.0,57.0,-100.00,ESE,123,5.0,9.0,86,0.00,,,0.00,,2013-09-08 15:45:00,
2013-09-08 15:54:00,61.0,57.0,-100.00,ESE,123,5.0,9.0,86,0.00,,,0.00,,2013-09-08 15:54:00,
2013-09-08 16:04:00,61.0,57.0,-100.00,ESE,123,5.0,9.0,86,0.00,,,0.00,,2013-09-08 16:04:00,
2013-09-08 16:14:00,61.0,57.0,-100.00,ESE,123,5.0,9.0,86,0.00,,,0.00,,2013-09-08 16:14:00,
2013-09-08 16:44:00,62.0,54.0,-100.00,South,173,3.0,10.0,76,0.00,,,0.00,,2013-09-08 16:44:00,
2013-09-08 16:53:00,62.0,54.0,-100.00,South,173,3.0,10.0,76,0.00,,,0.00,,2013-09-08 16:53:00,
2013-09-08 17:03:00,62.0,54.0,-100.00,South,173,3.0,10.0,76,0.00,,,0.00,,2013-09-08 17:03:00,
2013-09-08 17:12:00,62.0,54.0,-100.00,South,173,3.0,10.0,76,0.00,,,0.00,,2013-09-08 17:12:00,
2013-09-08 17:43:00,59.0,58.0,-100.00,ESE,111,4.0,9.0,95,0.04,,,0.04,,2013-09-08 17:43:00,
2013-09-08 17:53:00,59.0,58.0,-100.00,ESE,111,4.0,9.0,95,0.04,,,0.04,,2013-09-08 17:53:00,
2013-09-08 18:02:00,59.0,58.0,-100.00,ESE,111,4.0,9.0,95,0.04,,,0.04,,2013-09-08 18:02:00,
2013-09-08 18:13:00,59.0,58.0,-100.00,ESE,111,4.0,9.0,95,0.04,,,0.04,,2013-09-08 18:13:00,
2013-09-08 18:42:00,59.0,55.0,-100.00,SE,129,7.0,12.0,87,0.00,,,0.04,,2013-09-08 18:42:00,
2013-09-08 18:52:00,59.0,55.0,-100.00,SE,129,7.0,12.0,87,0.00,,,0.04,,2013-09-08 18:52:00,
2013-09-08 19:01:00,59.0,55.0,-100.00,SE,129,7.0,12.0,87,0.00,,,0.04,,2013-09-08 19:01:00,
2013-09-08 19:12:00,59.0,55.0,-100.00,SE,129,7.0,12.0,87,0.00,,,0.04,,2013-09-08 19:12:00,
2013-09-08 19:42:00,59.0,55.0,-100.00,SE,124,5.0,13.0,87,0.01,,,0.05,,2013-09-08 19:42:00,
2013-09-08 19:52:00,59.0,55.0,-100.00,SE,124,5.0,13.0,87,0.01,,,0.05,,2013-09-08 19:52:00,
2013-09-08 20:03:00,59.0,55.0,-100.00,SE,124,5.0,13.0,87,0.01,,,0.05,,2013-09-08 20:03:00,
2013-09-08 20:11:00,59.0,55.0,-100.00,SE,124,5.0,13.0,87,0.01,,,0.05,,2013-09-08 20:11:00,
2013-09-08 20:42:00,59.0,55.0,-100.00,ESE,112,8.0,16.0,86,0.00,,,0.05,,2013-09-08 20:42:00,
2013-09-08 20:53:00,59.0,55.0,-100.00,ESE,112,8.0,16.0,86,0.00,,,0.05,,2013-09-08 20:53:00,
2013-09-08 21:02:00,59.0,55.0,-100.00,ESE,112,8.0,16.0,86,0.00,,,0.05,,2013-09-08 21:02:00,
2013-09-08 21:12:00,59.0,55.0,-100.00,ESE,112,8.0,16.0,86,0.00,,,0.05,,2013-09-08 21:12:00,
2013-09-08 21:44:00,62.0,54.0,-100.00,SSE,147,2.0,12.0,74,0.00,,,0.05,,2013-09-08 21:44:00,
2013-09-08 21:54:00,62.0,54.0,-100.00,SSE,147,2.0,12.0,74,0.00,,,0.05,,2013-09-08 21:54:00,
2013-09-08 22:04:00,62.0,54.0,-100.00,SSE,147,2.0,12.0,74,0.00,,,0.05,,2013-09-08 22:04:00,
2013-09-08 22:13:00,62.0,54.0,-100.00,SSE,147,2.0,12.0,74,0.00,,,0.05,,2013-09-08 22:13:00,
2013-09-08 22:44:00,64.0,54.0,-100.00,NNE,26,4.0,8.0,70,0.00,,,-99.99,,2013-09-08 22:44:00,
2013-09-08 22:53:00,64.0,54.0,-100.00,NNE,26,4.0,8.0,70,0.00,,,-99.99,,2013-09-08 22:53:00,
2013-09-08 23:04:00,64.0,54.0,-100.00,NNE,26,4.0,8.0,70,0.00,,,-99.99,,2013-09-08 23:04:00,
2013-09-08 23:12:00,64.0,54.0,-100.00,NNE,26,4.0,8.0,70,0.00,,,-99.99,,2013-09-08 23:12:00,
2013-09-08 23:42:00,64.0,55.0,-100.00,NE,48,4.0,9.0,72,0.00,,,0.05,,2013-09-08 23:42:00,
2013-09-08 23:52:00,64.0,55.0,-100.00,NE,48,4.0,9.0,72,0.00,,,0.05,,2013-09-08 23:52:00,